Southend-On-Sea, United Kingdom

8:01 AM BST on April 27, 2018 (GMT +0100)
Southend

Weather History for EGMC - September, 2013

Change the Weather History Date:

Monday, September 2, 2013

  Actual Average Record
Temperature  
Mean Temperature 66 °F -  
Max Temperature 77 °F 65 °F 78 °F (2011)
Min Temperature 55 °F 52 °F 48 °F (2015)
Cooling Degree Days 1    
Growing Degree Days 16 (Base 50)    
Moisture  
Dew Point 54 °F    
Average Humidity 66    
Maximum Humidity 82    
Minimum Humidity 47    
Precipitation  
Precipitation 0.00 in - - ()
Sea Level Pressure  
Sea Level Pressure 30.30 in    
Wind  
Wind Speed 8 mph ()    
Max Wind Speed 13 mph    
Max Gust Speed -    
Visibility 6.2 miles    
Events      
Averages and records for this station are not official NWS values.
T = Trace of Precipitation, MM = Missing Value Source: Averaged Metar Reports

Daily Weather History Graph

Daily Weather History Graph

Search for Another Location

Airport or City:

Astronomy

Sep. 02, 2013 Rise Set
Actual Time 6:11 AM BST 7:41 PM BST
Civil Twilight 5:36 AM BST 8:15 PM BST
Nautical Twilight 4:53 AM BST 8:58 PM BST
Astronomical Twilight 4:06 AM BST 9:45 PM BST
Moon 3:00 AM BST (9/2) 5:55 PM BST (9/2)
Length of Visible Light 14h 39m
Length of Day
13h 29m
Waning Crescent, 9% of the Moon is Illuminated
Sep 2
Waning Crescent
Sep 5
New
Sep 12
First Quarter
Sep 19
Full
Sep 27
Last Quarter

Hourly Weather History & Observations

Time (BST) Temp. Dew Point Humidity Pressure Visibility Wind Dir Wind Speed Gust Speed Precip Events Conditions
12:50 AM 59.0 °F 50.0 °F 72% 30.33 in - West 8.1 mph - N/A   Clear
1:50 AM 57.2 °F 48.2 °F 72% 30.33 in - West 9.2 mph - N/A   Clear
2:50 AM 57.2 °F 48.2 °F 72% 30.33 in - West 6.9 mph - N/A   Clear
3:50 AM 55.4 °F 48.2 °F 77% 30.33 in - West 6.9 mph - N/A   Clear
4:50 AM 55.4 °F 50.0 °F 82% 30.30 in - West 8.1 mph - N/A   Clear
5:20 AM 55.4 °F 50.0 °F 82% 30.30 in - West 8.1 mph - N/A   Clear
5:50 AM 55.4 °F 50.0 °F 82% 30.30 in - WSW 9.2 mph - N/A   Clear
6:20 AM 55.4 °F 50.0 °F 82% 30.30 in - WSW 9.2 mph - N/A   Clear
6:50 AM 55.4 °F 50.0 °F 82% 30.30 in 6.2 mi WSW 9.2 mph - N/A   Partly Cloudy
7:20 AM 55.4 °F 50.0 °F 82% 30.30 in 6.2 mi WSW 9.2 mph - N/A   Partly Cloudy
7:50 AM 55.4 °F 50.0 °F 82% 30.30 in - West 10.4 mph - N/A   Clear
8:20 AM 59.0 °F 51.8 °F 77% 30.30 in - West 10.4 mph - N/A   Clear
8:50 AM 59.0 °F 51.8 °F 77% 30.30 in - West 10.4 mph - N/A   Clear
9:20 AM 62.6 °F 51.8 °F 68% 30.30 in - West 11.5 mph - N/A   Clear
9:50 AM 64.4 °F 51.8 °F 64% 30.30 in - West 12.7 mph - N/A   Clear
10:20 AM 64.4 °F 51.8 °F 64% 30.33 in - West 11.5 mph - N/A   Clear
10:50 AM 66.2 °F 51.8 °F 60% 30.30 in - West 11.5 mph - N/A   Clear
11:20 AM 68.0 °F 53.6 °F 60% 30.30 in - West 10.4 mph - N/A   Clear
11:50 AM 68.0 °F 53.6 °F 60% 30.30 in - West 10.4 mph - N/A   Clear
12:20 PM 69.8 °F 55.4 °F 60% 30.30 in - West 12.7 mph - N/A   Clear
12:50 PM 71.6 °F 55.4 °F 57% 30.30 in - West 12.7 mph - N/A   Clear
1:20 PM 73.4 °F 57.2 °F 57% 30.30 in - West 12.7 mph - N/A   Clear
1:50 PM 73.4 °F 57.2 °F 57% 30.30 in - West 11.5 mph - N/A   Clear
2:20 PM 73.4 °F 55.4 °F 53% 30.27 in - West 11.5 mph - N/A   Clear
2:50 PM 75.2 °F 55.4 °F 50% 30.27 in 6.2 mi West 11.5 mph - N/A   Partly Cloudy
3:20 PM 75.2 °F 55.4 °F 50% 30.27 in 6.2 mi WNW 10.4 mph - N/A   Partly Cloudy
3:50 PM 75.2 °F 55.4 °F 50% 30.27 in 6.2 mi West 9.2 mph - N/A   Partly Cloudy
4:20 PM 77.0 °F 57.2 °F 50% 30.27 in 6.2 mi WNW 10.4 mph - N/A   Partly Cloudy
4:50 PM 77.0 °F 57.2 °F 50% 30.27 in 6.2 mi West 9.2 mph - N/A   Partly Cloudy
5:20 PM 77.0 °F 57.2 °F 50% 30.27 in 6.2 mi WNW 8.1 mph - N/A   Partly Cloudy
5:50 PM 77.0 °F 55.4 °F 47% 30.27 in 6.2 mi West 8.1 mph - N/A   Partly Cloudy
6:20 PM 77.0 °F 57.2 °F 50% 30.27 in 6.2 mi West 9.2 mph - N/A   Partly Cloudy
6:50 PM 75.2 °F 57.2 °F 53% 30.27 in - WNW 6.9 mph - N/A   Clear
7:20 PM 73.4 °F 57.2 °F 57% 30.27 in 6.2 mi West 4.6 mph - N/A   Partly Cloudy
7:50 PM 71.6 °F 57.2 °F 60% 30.30 in - West 4.6 mph - N/A   Clear
8:20 PM 69.8 °F 57.2 °F 64% 30.30 in - WNW 3.5 mph - N/A   Clear
8:50 PM 68.0 °F 57.2 °F 68% 30.30 in - WNW 4.6 mph - N/A   Clear
9:20 PM 64.4 °F 57.2 °F 77% 30.30 in - WNW 3.5 mph - N/A   Clear
9:50 PM 66.2 °F 57.2 °F 73% 30.33 in - West 2.3 mph - N/A   Clear
10:20 PM 64.4 °F 57.2 °F 77% 30.33 in - WNW 4.6 mph - N/A   Clear
10:50 PM 64.4 °F 55.4 °F 73% 30.33 in - NW 5.8 mph - N/A   Clear
11:20 PM 64.4 °F 55.4 °F 73% 30.33 in - Variable 2.3 mph - N/A   Clear
11:50 PM 62.6 °F 55.4 °F 77% 30.33 in - Variable 3.5 mph - N/A   Clear